User: anonymous   Login
Location: Unspecified
(0.0000°N, 0.0000°E)
Time: 17:14:12
(UTC+02:00)
Language:

ARIANE 5 R/B - Orbit

View from above orbital plane
View from above orbital plane
View from above satellite
View from above satellite

Ground track
Ground track

The orbit data is extracted from the following two-line orbital elements,

1 27510U 02040C   17265.33055816 -.00000069  00000-0  98526-3 0  9992
2 27510   4.7993 173.9858 7160292  46.7115 169.8650  2.27202056125112
Epoch (UTC): 22 September 2017 07:56:00
Eccentricity: 0.7160292
inclination: 4.7993°
perigee height: 562 km
apogee height: 35564 km
right ascension of ascending node: 173.9858°
argument of perigee: 46.7115°
revolutions per day: 2.27202056
mean anomaly at epoch: 169.8650°
orbit number at epoch: 12511

The dashed part of the orbit path shows where the satellite is in the earth's shadow,  

DLR